Visibility
15.0 15.0 15.0 15.0 15.0 15.0 15.0 15.0 15.0 9.5 12.6 15.0 1.8 2.2 13.2 11.4 15.0 10.1 13.5 15.0 15.0 15.0 15.0 15.0 15.0 15.0 15.0 15.0 15.0 15.0 5.3 11.8 9.7 7.1 15.0 11.4 15.0 15.0 15.0 15.0 15.0 15.0 11.2
15.0 15.0 15.0 15.0 15.0 15.0 15.0 15.0 15.0 15.0 15.0 12.7 13.4 3.2 4.9 14.3 4.1 10.3 15.0 15.0 15.0 15.0 15.0 15.0 15.0 15.0 15.0 15.0 10.4 11.2 14.9 12.8 12.9 5.9 6.5 11.5 6.9 14.7 15.0 15.0 15.0 11.1 10.5
15.0 15.0 15.0 15.0 15.0 15.0 15.0 15.0 15.0 15.0 15.0 15.0 15.0 15.0 15.0 13.6 13.4 12.2 15.0 15.0 15.0 15.0 15.0 15.0 15.0 15.0 15.0 15.0 12.7 9.7 14.1 7.6 5.2 4.2 4.8 8.5 9.3 8.9 13.5 13.5 11.2 5.6 6.5
15.0 15.0 15.0 15.0 15.0 15.0 15.0 15.0 15.0 15.0 15.0 15.0 15.0 15.0 9.3 3.5 11.1 10.0 12.3 15.0 15.0 15.0 15.0 15.0 15.0 15.0 15.0 11.1 12.1 6.6 6.4 6.2 4.2 4.7 3.5 5.0 5.9 4.2 7.1 0.1 0.2 5.4 5.7
15.0 15.0 15.0 15.0 15.0 15.0 15.0 15.0 15.0 15.0 15.0 15.0 15.0 15.0 15.0 15.0 14.0 4.1 15.0 13.3 15.0 15.0 15.0 15.0 15.0 15.0 15.0 14.9 8.2 5.7 5.2 4.4 1.9 3.9 3.2 1.4 0.1 0.1 0.0 0.1 4.7 0.7 10.1
15.0 15.0 15.0 15.0 15.0 15.0 15.0 15.0 15.0 15.0 15.0 15.0 15.0 15.0 15.0 15.0 15.0 5.5 5.0 15.0 9.4 0.2 0.3 15.0 15.0 15.0 14.8 1.4 0.9 0.8 7.5 7.1 5.5 4.7 0.1 0.0 0.1 0.1 0.3 0.0 0.0 0.0 0.0
15.0 15.0 15.0 15.0 15.0 15.0 15.0 15.0 15.0 15.0 15.0 15.0 15.0 15.0 15.0 15.0 15.0 5.4 3.8 12.5 0.1 0.1 0.2 0.2 0.1 0.1 0.2 0.1 0.2 0.2 5.4 5.4 2.8 2.5 0.1 0.1 0.0 0.1 0.2 0.0 0.0 9.0 1.7
15.0 15.0 15.0 15.0 15.0 15.0 15.0 13.4 15.0 15.0 15.0 15.0 15.0 9.2 11.1 15.0 15.0 15.0 15.0 1.6 0.1 0.1 0.1 0.2 0.2 0.1 0.1 0.1 0.1 0.1 0.1 0.1 0.3 0.1 2.9 0.2 5.1 12.4 7.3 0.9 0.0 0.0 0.1
15.0 15.0 15.0 15.0 15.0 15.0 15.0 15.0 15.0 15.0 15.0 15.0 6.1 10.9 15.0 15.0 15.0 15.0 12.8 0.1 0.0 0.0 0.1 0.3 0.3 0.1 0.2 3.8 0.1 0.1 0.0 0.0 2.0 6.6 4.1 0.1 0.1 0.1 0.0 0.0 0.1 0.1 0.1
15.0 15.0 15.0 15.0 15.0 15.0 11.0 11.3 15.0 6.1 7.5 15.0 15.0 15.0 15.0 15.0 15.0 15.0 2.8 0.1 0.0 0.0 0.1 0.2 8.0 0.2 0.5 0.1 0.0 0.0 0.1 0.0 0.0 0.0 0.0 0.0 0.0 0.0 0.0 4.6 0.2 0.1 0.2
15.0 15.0 15.0 15.0 15.0 15.0 15.0 15.0 15.0 15.0 15.0 15.0 15.0 15.0 15.0 15.0 15.0 15.0 4.1 0.1 0.1 0.1 0.1 0.0 0.0 0.1 0.0 0.0 0.0 0.0 0.1 0.0 0.1 0.0 0.0 0.0 0.0 0.0 0.0 0.0 0.1 4.5 0.1
15.0 15.0 15.0 15.0 15.0 15.0 15.0 15.0 15.0 15.0 15.0 15.0 15.0 15.0 15.0 15.0 0.1 0.3 0.2 0.2 9.1 0.2 0.2 0.1 0.0 0.0 0.0 0.0 0.0 0.0 0.1 0.1 0.1 0.1 0.1 0.1 0.1 0.1 0.1 0.1 0.1 0.0 2.5
15.0 15.0 15.0 15.0 15.0 15.0 15.0 5.0 1.7 2.0 1.7 0.8 1.2 2.3 12.5 14.0 0.0 0.1 0.2 1.9 15.0 6.6 0.2 0.1 0.0 0.0 0.0 0.0 0.1 0.1 0.1 0.1 0.1 0.1 0.1 0.1 0.1 0.1 0.1 0.1 0.1 0.2 0.1
0.1 0.0 0.0 0.0 0.0 0.1 0.1 0.0 0.0 0.0 0.0 0.0 0.0 0.0 0.0 0.0 0.0 0.0 0.1 0.5 6.1 0.1 0.1 0.0 0.0 0.4 0.1 0.1 0.0 0.0 0.0 0.1 0.2 0.2 0.1 0.1 0.1 0.1 0.1 0.2 0.5 0.5 0.8
4.1 4.6 0.0 0.0 0.0 0.0 0.0 0.0 0.0 0.0 0.0 0.0 0.0 0.0 0.0 0.0 0.0 0.0 0.1 0.1 0.2 0.9 0.1 0.1 0.1 0.4 0.2 0.1 0.1 0.1 0.1 0.1 0.2 5.5 2.4 0.1 0.1 0.5 0.4 4.9 12.4 15.0 14.6
0.0 0.1 0.1 0.2 0.1 0.0 0.0 0.0 0.0 0.1 0.3 0.2 0.7 0.0 0.1 0.1 0.1 0.1 0.2 0.1 5.0 0.5 0.2 0.1 0.1 0.1 0.1 0.1 0.1 0.1 0.1 1.0 12.8 15.0 15.0 15.0 15.0 13.6 15.0 15.0 15.0 15.0 15.0
0.0 0.0 0.1 0.1 0.1 0.0 0.0 0.0 0.1 15.0 15.0 15.0 11.1 0.0 0.2 0.0 0.0 0.1 0.0 0.0 0.1 0.1 0.1 0.2 0.2 0.1 0.1 0.1 0.1 0.1 0.1 6.2 15.0 15.0 15.0 15.0 15.0 15.0 15.0 15.0 15.0 15.0 15.0
3.6 0.1 0.0 0.0 0.1 0.0 0.0 0.1 0.4 10.9 1.1 15.0 3.6 0.2 0.2 0.0 0.0 0.0 0.0 0.0 0.0 0.0 0.1 0.3 0.1 0.1 0.2 0.2 0.1 0.1 0.5 12.7 15.0 15.0 15.0 15.0 15.0 15.0 15.0 15.0 15.0 15.0 15.0
15.0 15.0 0.2 0.1 7.8 0.1 0.1 1.5 7.7 8.3 15.0 15.0 15.0 0.6 0.0 0.0 0.0 0.0 0.0 0.4 0.1 0.1 0.1 0.1 0.2 0.1 0.1 0.1 0.2 0.4 12.4 13.3 15.0 15.0 15.0 15.0 15.0 15.0 15.0 15.0 15.0 15.0 15.0
15.0 15.0 15.0 0.0 3.0 15.0 0.1 0.6 15.0 15.0 15.0 14.3 1.5 10.5 0.8 1.5 0.0 0.0 0.0 0.0 0.0 0.2 0.1 0.2 0.1 0.1 0.1 0.2 2.7 12.7 14.8 15.0 15.0 15.0 15.0 15.0 15.0 15.0 15.0 15.0 15.0 15.0 15.0
15.0 15.0 15.0 15.0 0.0 14.7 0.4 0.1 1.1 14.6 0.8 1.7 15.0 5.9 3.7 2.8 0.3 0.1 0.0 0.0 0.0 0.1 0.1 0.2 0.1 0.1 0.2 0.6 1.1 1.7 15.0 15.0 15.0 15.0 15.0 15.0 15.0 15.0 15.0 15.0 15.0 15.0 15.0
15.0 15.0 15.0 13.6 0.2 0.0 7.1 0.1 0.1 0.1 0.1 0.3 12.7 15.0 15.0 15.0 1.0 0.1 0.1 0.1 0.1 0.0 0.0 0.2 0.2 0.5 5.7 1.1 1.3 15.0 15.0 15.0 15.0 15.0 15.0 15.0 15.0 15.0 15.0 15.0 15.0 15.0 15.0
15.0 15.0 15.0 11.7 12.9 0.0 0.1 6.5 0.1 0.1 0.1 0.1 2.2 2.8 15.0 15.0 15.0 14.2 1.3 0.2 0.2 0.2 0.1 0.1 0.1 0.1 0.1 0.6 9.7 15.0 15.0 15.0 15.0 15.0 15.0 15.0 15.0 15.0 15.0 15.0 15.0 15.0 15.0
15.0 15.0 15.0 15.0 6.8 0.1 0.0 0.0 0.1 0.3 0.0 0.1 0.6 6.8 10.7 15.0 3.6 4.6 1.9 0.6 0.3 0.1 0.1 0.2 0.2 0.2 0.4 11.8 15.0 15.0 15.0 15.0 15.0 15.0 15.0 15.0 15.0 15.0 15.0 15.0 15.0 15.0 15.0
15.0 15.0 15.0 15.0 12.5 0.8 0.0 0.0 0.1 0.1 0.0 0.1 0.2 0.6 3.0 8.8 1.4 3.6 4.5 1.6 0.4 0.3 0.1 0.1 0.2 2.9 15.0 15.0 15.0 15.0 15.0 15.0 15.0 15.0 15.0 15.0 15.0 15.0 15.0 15.0 15.0 15.0 15.0
15.0 15.0 15.0 15.0 13.1 3.8 0.2 0.0 0.1 0.0 0.1 0.2 0.2 0.1 0.6 2.2 6.2 8.0 4.6 7.6 2.8 1.9 2.4 3.9 15.0 15.0 15.0 15.0 15.0 15.0 15.0 15.0 15.0 15.0 15.0 15.0 15.0 15.0 15.0 15.0 15.0 15.0 15.0